Location: Cudham
(51.3000°N, 0.0667°E)
Time: 00:57:47
(UTC+00:00)

Spot 1 - Pass Details

Date: 19 May 2025
Orbit: 568 x 753 km, 98.7° (Epoch: 18 June)

Event Time Altitude Azimuth Distance (km) Brightness Sun altitude
Rises 23:18:11 0° 18° (NNE) 2,858 8.6 -18.2°
Reaches altitude 10° 23:20:21 10° 23° (NNE) 1,973 7.5 -18.3°
Maximum altitude 23:24:34 57° 102° (ESE) 750 4.3 -18.4°
Enters shadow 23:25:57 39° 159° (SSE) 965 4.5 -18.4°
